Home   Weather   Edmundston   Past weeks

Flag for Canada Past Weather in Edmundston, New Brunswick, Canada — Yesterday and Last 2 Weeks

Now
64 °F

Mild.


Feels Like: 64 °F
Forecast: 57 / 71 °F
Wind: 5 mph from South

Location: Riviere Du Loup

Current Time: Aug 31, 2016 at 3:15:27 AM

Latest Report: Aug 31, 2016 at 2:00 AM


Visibility: N/A

Pressure: 29.88 "Hg

Humidity: 83%

Dew Point: 58 °F

Location of EdmundstonLocation

Past Weather in Edmundston — Graph

°F

Edmundston Temperature Yesterday

Maximum temperature yesterday: 72 °F (at 5:00 PM)
Minimum temperature yesterday: 56 °F (at 7:00 AM)
Average temperature yesterday: 64 °F

High & Low Weather Summary for the Past Weeks

 TemperatureHumidityPressure
High82 °F (Aug 21, 5:00 PM)100% (Aug 17, 6:00 AM)30.29 "Hg (Aug 17, 6:00 AM)
Low48 °F (Aug 20, 7:00 AM)35% (Aug 27, 3:00 PM)29.70 "Hg (Aug 22, 6:00 AM)
Average65 °F74%29.95 "Hg
* Reported Aug 16 2:00 AM — Aug 31 2:00 AM, Edmundston, Weather by CustomWeather, © 2016

Note: Actual official high and low records may vary slightly from our data, if they occured in-between our weather recording intervals... More about our weather records

Advertising

Edmundston Weather History for the Previous 24 Hours

Scroll right to see more
 ConditionsComfort  
Time TempWeatherWind HumidityBarometerVisibility
2:00 AM
Wed, Aug 31
64 °FMild.5 mph83%29.88 "HgN/A
1:00 AM62 °FMild.3 mph84%29.90 "HgN/A
12:00 AM64 °FMild.3 mph77%29.92 "HgN/A
11:00 PM
Tue, Aug 30
65 °FMild.5 mph76%29.93 "HgN/A
10:00 PM63 °FMild.2 mph81%29.94 "HgN/A
9:00 PM65 °FMild.3 mph75%29.94 "HgN/A
8:00 PM67 °FMild.7 mph71%29.94 "HgN/A
7:00 PM69 °FMild.7 mph66%29.93 "HgN/A
6:00 PM70 °FMild.7 mph59%29.94 "HgN/A
5:00 PM72 °FMild.9 mph56%29.94 "HgN/A
4:00 PM69 °FMild.8 mph68%29.96 "HgN/A
3:00 PM69 °FMild.8 mph65%29.98 "HgN/A
2:00 PM69 °FMild.7 mph68%29.99 "HgN/A
1:00 PM68 °FMild.7 mph69%30.01 "HgN/A
12:00 PM65 °FMild.8 mph73%30.03 "HgN/A
11:00 AM64 °FMild.5 mph76%30.05 "HgN/A
10:00 AM63 °FMild.5 mph79%30.05 "HgN/A
9:00 AM60 °FCool.3 mph84%30.06 "HgN/A
8:00 AM57 °FCool.3 mph87%30.06 "HgN/A
7:00 AM56 °FCool.2 mph88%30.06 "HgN/A
6:00 AM56 °FCool.2 mph84%30.05 "HgN/A
5:00 AM58 °FCool.6 mph85%30.05 "HgN/A
4:00 AM56 °FCool.3 mph82%30.04 "HgN/A
3:00 AM60 °FCool.5 mph72%30.05 "HgN/A
Weather by CustomWeather, © 2016

See weather overviewHow to use our weather pages